COSMOS 1275 DEB, 12670

Orbit data source: Space-Track

COSMOS 1275 DEB, 12670 is space debris in LEO originally from a launch on Thu, 04 Jun 1981 UTC launched from the Plesetsk Missile And Space Complex (PKMTR). Debris objects in space refer to the collection of defunct objects orbiting the Earth. Examples of debris include non-operational satellites, rocket bodies, and fragments generated from explosions, collisions, or faulty payload assembly.

Loading next visibility...
COSMOS 1275 DEB details
Identifier
12670, 1981-053AA
Orbit
LEO
Last TLE update7 hours ago
Origin
Flag of CISVMF (CIS)
ManufacturerUnknown
MissionSpacecraft
Bus & MotorUnknown
MassUnknown
Launch date (UTC)
1981-06-04 (44 years ago)
Launch vehicleUnknown
Launch site
Plesetsk Missile And Space Complex (PKMTR)
Object type
Payload
Rocket body
Debris
Shape & HBRUnknown
Radar Cross SectionMedium (>0.1 m² and <1 m²)

Expand to show TLE details & history

TLE from 7 hours ago
0 COSMOS 1275 DEB
1 12670U 81053AA  24361.19903155  .00000877  00000-0  81344-3 0  9997
2 12670  82.9409 247.1285 0055728 139.2692 335.0199 13.80494556179527
Epoch: 2024-12-26T04:46Z
Definitive object data (Epoch: 2024-12-26T04:46:36.325Z)
Latitude65.11161°
Longitude-115.10247°
Altitude936.329 km
Speed7.408 km/s
True Right ascension03h 26m 55s
True Declination64° 58' 60"
Sunlit
Object was in full shadow at TLE epoch
Visualization TLE readout
Latitude-42.31756°
Longitude-93.49777°
Altitude973.909 km
Speed7.366 km/s
Apparent Right ascension02h 25m 00s
Apparent Declination-48° 26' 06"
Sunlit
Object is in daylight
Visualization observer readout
Local Sidereal Time11:36:44
Azimuth239.887° WSW
Elevation-59.077°
Doppler factor1
Orbital elements
Apogee altitude1,000.164 km
Perigee altitude918.384 km
Semi-major axis7,337.411 km
Eccentricity0.0055728
Inclination82.9409°
RAAN247.1285°
Arg. of periapsis139.2692°
True anomaly334.74851°
Mean anomaly335.0199°
Eccentric anomaly334.88438°
Mean motion3.45326 °/min
BSTAR0.00081344
Orbital period104.25 mins
Loading maneuver chart data...
Loading historical data...
Loading historical data...
Loading historical data...
Loading historical data...
Loading historical data...
Loading historical data...
Loading historical data...

COSMOS 1275 DEB Visibility forecast

Observer location: undefined°, undefined

Span
Click to sort rows by Start time (UTC) header in descending order
Start Az.
Max El. time (UTC)
Max El. Az.
Max El.
End time (UTC)
End Az.
9 mins2024-12-26 16:31:15.569Z145.014° SSE2024-12-26 16:36:15.569Z79.202° E28.722°2024-12-26 16:40:15.569Z30.961° NE
10 mins2024-12-26 18:16:15.569Z225.747° WSW2024-12-26 18:21:15.569Z293.423° NW29.198°2024-12-26 18:26:15.569Z348.664° N
8 mins2024-12-27 03:26:15.569Z25.676° NE2024-12-27 03:30:15.569Z76.623° E22.938°2024-12-27 03:34:15.569Z123.284° SE
9 mins2024-12-27 05:11:15.569Z332.398° NNW2024-12-27 05:15:15.569Z269.732° W34.452°2024-12-27 05:20:15.569Z202.491° SSW
|